Location: Newark
(48.3453°N, 0.5589°E)
Time: 15:37:48
(UTC+00:00)

A-11 Canister half - Pass Details

Date: 10 December 2019
Orbit: 1516 x 1683 km, 47.2° (Epoch: 18 January)

Event Time Altitude Azimuth Distance (km) Brightness Sun altitude
Rises 16:12:55 0° 280° (W) 4,836 12.4 -2.2°
Reaches altitude 10° 16:16:01 10° 279° (W) 3,870 11.9 -2.6°
Maximum altitude 16:25:56 76° 197° (SSW) 1,712 9.4 -4.0°
Drops below altitude 10° 16:36:04 10° 114° (ESE) 3,944 10.8 -5.5°
Sets 16:39:14 0° 113° (ESE) 4,932 11.3 -6.0°
